Regional Weather Roundup
Issued by NWS

Home | Current Version | Previous Version | Graphics & Text | Print | Product List | Glossary On
Versions: 1 2 3 4 5 6 7 8 9 10 11 12 13 14 15 16 17 18 19 20 21 22 23 24 25 26 27 28 29 30 31 32 33 34 35 36 37 38 39 40 41 42 43 44 45 46 47 48 49 50
000
ASUS45 KTFX 271410
RWRMT
MONTANA REGIONAL WEATHER ROUNDUP
NATIONAL WEATHER SERVICE GREAT FALLS MT
800 AM MDT WED MAY 27 2015

NOTE: "FAIR" INDICATES FEW OR NO CLOUDS BELOW 12000 FEET WITH NO
SIGNIFICANT WEATHER AND/OR OBSTRUCTIONS TO VISIBILITY.

MTZ001>007-043-271500-
WEST OF THE DIVIDE

CITY           SKY/WX    TMP DP  RH WIND       PRES   REMARKS
KALISPELL      CLOUDY    50  46  86 CALM      30.02S
MISSOULA       PTSUNNY   45  43  93 CALM      30.06R
BUTTE          CLOUDY    47  43  86 CALM      30.07S
MULLAN PASS    MOSUNNY   45  41  86 CALM      30.07R
DEER LODGE       N/A     48  46  93 CALM      30.09
EUREKA           N/A     50  46  87 CALM        N/A
HAMILTON         N/A     52  45  76 S2        30.05
LIBBY            N/A     48  46  93 CALM      30.06
RONAN            N/A     51  48  89 CALM      30.06
$$

MTZ008-052>055-271500-
SOUTHWEST MONTANA

CITY           SKY/WX    TMP DP  RH WIND       PRES   REMARKS
BOZEMAN        CLOUDY    50  47  89 NW3       30.06R
DILLON         CLOUDY    48  46  93 N5        30.06R
W YELLOWSTONE  CLOUDY    45  39  81 CALM      30.11S
THREE FORKS      N/A     52  29  41 CALM      30.04
TWIN BRIDGES     N/A     50  45  83 N1        30.04
$$

MTZ009-010-012-014-046-048-049-054-271500-
EAST SLOPES AND CENTRAL MONTANA

CITY           SKY/WX    TMP DP  RH WIND       PRES   REMARKS
CUT BANK       CLOUDY    52  48  86 NW14      30.03S
GREAT FALLS    CLOUDY    51  48  89 SW10      30.03R
MALMSTROM AFB  PTSUNNY   52  49  89 SW12      30.03S
HELENA         CLOUDY    52  48  86 CALM      30.05R
CONRAD           N/A     54  53  96 W9        30.05
$$

MTZ011-013-016-021-045-047-050-051-271500-
NORTH CENTRAL MONTANA

CITY           SKY/WX    TMP DP  RH WIND       PRES   REMARKS
HAVRE          PTSUNNY   57  52  83 SW7       29.96S
LEWISTOWN      CLOUDY    51  49  92 SW7       30.03S
N BAR RANCH    FAIR      55  48  76 NW5       30.03S
CHINOOK          N/A     59  54  82 W7        29.95
FORT BENTON      N/A     57  50  77 SW8       30.01
$$

MTZ017>020-022>027-061-062-271500-
NORTHEAST MONTANA

CITY           SKY/WX    TMP DP  RH WIND       PRES   REMARKS
GLASGOW        CLOUDY    58  53  84 NE9       29.92F
JORDAN           N/A     60  54  80 W6        29.94S
SIDNEY         MOSUNNY   63  48  59 CALM      29.93S
WOLF POINT     CLOUDY    59  50  72 CALM      29.94R
MALTA            N/A     57  52  84 CALM      29.91
PLENTYWOOD       N/A     70  48  46 CALM      29.93
POPLAR           N/A     61  52  72 W3        29.94
$$

MTZ028>42-056>058-271500-
SOUTHCENTRAL AND SOUTHEAST MONTANA

CITY           SKY/WX    TMP DP  RH WIND       PRES   REMARKS
BAKER          PTSUNNY   61  51  70 SE6       29.95S
BILLINGS       PTSUNNY   54  51  90 SW6       29.99S
LIVINGSTON     CLOUDY    54  45  71 W9        30.03R
MILES CITY     CLOUDY    61  51  70 NE7       29.93R
BIG TIMBER       N/A     54  48  82 W7        30.04
FORSYTH          N/A     57  57 100 W7        29.95
LAUREL           N/A     53  47  80 CALM      29.98
ROUNDUP          N/A     54  50  86 CALM      29.91
$$

REGIONAL REPORTS...DAKOTAS

CITY           SKY/WX    TMP DP  RH WIND       PRES   REMARKS
WILLISTON      SUNNY     65  47  52 VRB3      29.93S
MINOT          MOSUNNY   64  48  56 S3        29.95S
DICKINSON      PTSUNNY   63  50  62 S9        29.94F
BEACH          FAIR      59  55  88 S7        29.95S
CROSBY         FAIR      63  50  63 SE7       29.95S
WATFORD CITY   FAIR      63  48  59 E3        29.92S
BISMARCK       SUNNY     65  51  60 CALM      29.96S
GRAND FORKS    MOSUNNY   58  46  64 N14       29.94R
FARGO          SUNNY     64  53  67 N14       29.92R
BUFFALO SD       N/A     59  51  75 S3        29.91S
RAPID CITY     PTSUNNY   58  54  86 S12       30.00R
$$

REGIONAL REPORTS...WYOMING/IDAHO/WASHINGTON

CITY           SKY/WX    TMP DP  RH WIND       PRES   REMARKS
GILLETTE       MOSUNNY   56  50  80 S12       29.99S
SHERIDAN       CLOUDY    53  50  89 CALM      30.00R
BUFFALO WY     CLOUDY    52  48  86 NW9       30.02R
CODY           PTSUNNY   54  45  71 CALM      30.03S
YELLOWSTONE LA   N/A     40  37  89 CALM      30.17R
IDAHO FALLS    PTSUNNY   48  46  93 CALM      30.07S
SALMON         CLOUDY    50  45  81 CALM      30.04S
BOISE          MOSUNNY   57  51  80 NE5       30.00R
SPOKANE        MOSUNNY   53  49  86 CALM      30.02R
$$

REGIONAL REPORTS...ALBERTA

CITY           SKY/WX    TMP DP  RH WIND       PRES   REMARKS
EDMONTON       PTSUNNY   59  48  67 SW7       29.97F
CALGARY        PTSUNNY   57  46  67 W3        30.03S
LETHBRIDGE       N/A     55  50  82 W16       30.03S
MEDICINE HAT   CLOUDY    59  48  67 SE2       29.98R
$$

REGIONAL REPORTS...SASKATCHEWAN

CITY           SKY/WX    TMP DP  RH WIND       PRES   REMARKS
SWIFT CURRENT  MOSUNNY   55  48  76 E15G21    29.96R
REGINA         MOSUNNY   55  46  71 E14       29.99S
SASKATOON      PTSUNNY   48  43  81 E7        30.06S
$$



USA.gov is the U.S. government's official web portal to all federal, state and local government web resources and services.